Location: Caltech
(34.1382°N, 118.1253°W)
Time: 09:12:39
(UTC-07:00)

ITAMSAT 1 - Visible Passes

Search period start: 19 October 2017 00:00
Search period end: 29 October 2017 00:00
Orbit: 784 x 796 km, 98.8° (Epoch: 18 October)

Date Brightness Start Highest point End Pass type
(mag) Time Alt. Az. Time Alt. Az. Time Alt. Az.
19 Oct 8.4 04:39:21 10° NNE 04:42:55 45° N 04:42:55 45° N visible
20 Oct 9.3 04:10:10 10° NNE 04:13:02 30° NE 04:13:02 30° NE visible
20 Oct 9.1 05:50:46 10° NNW 05:53:45 18° WNW 05:53:45 18° WNW visible
21 Oct 10.2 03:41:33 10° NE 03:43:09 17° ENE 03:43:09 17° ENE visible
21 Oct 8.6 05:20:28 10° N 05:23:53 30° NW 05:23:53 30° NW visible
22 Oct 8.5 04:50:44 10° N 04:54:00 38° N 04:54:00 38° N visible
23 Oct 9.2 04:21:24 10° NNE 04:24:07 30° NNE 04:24:07 30° NNE visible
23 Oct 9.3 06:02:46 10° NNW 06:04:50 14° NW 06:04:50 14° NW visible
24 Oct 10.0 03:52:32 10° NE 03:54:13 18° NE 03:54:13 18° NE visible
24 Oct 8.9 05:32:05 10° NNW 05:34:57 24° NW 05:34:57 24° NW visible
25 Oct 8.7 05:02:11 10° N 05:05:03 31° NNW 05:05:03 31° NNW visible
26 Oct 9.2 04:32:42 10° NNE 04:35:09 28° NNE 04:35:09 28° NNE visible
26 Oct 9.6 06:15:18 10° NW 06:15:53 11° NW 06:15:53 11° NW visible
27 Oct 9.9 04:03:39 10° NNE 04:05:16 19° NE 04:05:16 19° NE visible
27 Oct 9.2 05:43:48 10° NNW 05:45:59 18° NW 05:45:59 18° NW visible
28 Oct 10.6 03:35:13 10° NE 03:35:22 11° NE 03:35:22 11° NE visible
28 Oct 9.0 05:13:41 10° N 05:16:06 25° NNW 05:16:06 25° NNW visible
